TimeMDT,TemperatureF,Dew PointF,Humidity,Sea Level PressureIn,VisibilityMPH,Wind Direction,Wind SpeedMPH,Gust SpeedMPH,PrecipitationIn,Events,Conditions,WindDirDegrees,DateUTC
12:12 AM,37.8,3.9,24,30.06,10.0,North,5.8,-,N/A,,Clear,10,2012-10-18 06:12:00
12:32 AM,35.6,4.6,27,30.06,10.0,North,6.9,-,N/A,,Clear,360,2012-10-18 06:32:00
12:52 AM,35.6,4.6,27,30.06,10.0,NNW,6.9,-,N/A,,Clear,340,2012-10-18 06:52:00
1:12 AM,31.5,7.9,37,30.08,10.0,West,4.6,-,N/A,,Clear,270,2012-10-18 07:12:00
1:32 AM,33.6,5.9,31,30.09,10.0,Calm,Calm,-,N/A,,Clear,0,2012-10-18 07:32:00
1:52 AM,36.5,5.5,27,30.09,10.0,Calm,Calm,-,N/A,,Clear,0,2012-10-18 07:52:00
2:12 AM,33.8,5.7,31,30.09,10.0,NNW,4.6,-,N/A,,Clear,330,2012-10-18 08:12:00
2:32 AM,34.2,6.1,31,30.09,10.0,North,9.2,-,N/A,,Clear,350,2012-10-18 08:32:00
2:52 AM,34.2,6.3,31,30.08,10.0,North,10.4,-,N/A,,Clear,360,2012-10-18 08:52:00
3:12 AM,33.6,6.6,32,30.08,10.0,North,9.2,-,N/A,,Clear,360,2012-10-18 09:12:00
3:32 AM,31.5,7.3,36,30.08,10.0,North,10.4,-,N/A,,Clear,10,2012-10-18 09:32:00
3:52 AM,30.6,7.7,38,30.08,10.0,North,6.9,-,N/A,,Clear,360,2012-10-18 09:52:00
4:12 AM,29.1,9.0,43,30.08,10.0,North,6.9,-,N/A,,Clear,360,2012-10-18 10:12:00
4:32 AM,29.3,10.4,45,30.08,10.0,North,6.9,-,N/A,,Clear,350,2012-10-18 10:32:00
4:52 AM,28.9,10.0,45,30.08,10.0,North,6.9,-,N/A,,Clear,360,2012-10-18 10:52:00
5:32 AM,28.4,10.4,47,30.09,10.0,WNW,8.1,-,N/A,,Clear,290,2012-10-18 11:32:00
5:52 AM,27.9,9.9,47,30.09,10.0,WSW,5.8,-,N/A,,Clear,250,2012-10-18 11:52:00
6:12 AM,28.6,9.0,44,30.09,10.0,SSW,3.5,-,N/A,,Clear,200,2012-10-18 12:12:00
6:32 AM,30.2,9.0,41,30.09,10.0,WSW,6.9,-,N/A,,Clear,250,2012-10-18 12:32:00
6:52 AM,29.3,8.6,42,30.09,10.0,West,6.9,-,N/A,,Clear,270,2012-10-18 12:52:00
7:12 AM,27.9,9.3,46,30.09,10.0,West,5.8,-,N/A,,Clear,270,2012-10-18 13:12:00
7:32 AM,30.7,9.5,41,30.10,10.0,Calm,Calm,-,N/A,,Clear,0,2012-10-18 13:32:00
7:52 AM,32.0,10.9,42,30.10,10.0,West,5.8,-,N/A,,Clear,260,2012-10-18 13:52:00
8:12 AM,34.7,10.9,37,30.10,10.0,WSW,5.8,-,N/A,,Clear,250,2012-10-18 14:12:00
8:32 AM,36.7,10.8,34,30.11,10.0,West,3.5,-,N/A,,Clear,260,2012-10-18 14:32:00
8:52 AM,38.3,10.9,32,30.12,10.0,SW,6.9,-,N/A,,Clear,220,2012-10-18 14:52:00
9:12 AM,39.4,11.1,31,30.11,10.0,SW,5.8,-,N/A,,Clear,220,2012-10-18 15:12:00
9:32 AM,41.2,11.3,30,30.12,10.0,South,3.5,-,N/A,,Clear,180,2012-10-18 15:32:00
9:52 AM,43.0,11.7,28,30.12,10.0,SSW,4.6,-,N/A,,Clear,210,2012-10-18 15:52:00
10:12 AM,47.1,11.5,24,30.12,10.0,WNW,9.2,-,N/A,,Clear,300,2012-10-18 16:12:00
10:32 AM,51.8,9.5,18,30.11,10.0,NNW,12.7,19.6,N/A,,Clear,340,2012-10-18 16:32:00
10:52 AM,52.7,11.1,19,30.12,10.0,WSW,5.8,27.6,N/A,,Clear,240,2012-10-18 16:52:00
11:12 AM,49.5,12.2,22,30.11,10.0,South,9.2,17.3,N/A,,Clear,180,2012-10-18 17:12:00
11:32 AM,51.8,12.9,21,30.11,10.0,SW,4.6,-,N/A,,Clear,220,2012-10-18 17:32:00
11:52 AM,53.1,12.7,20,30.12,10.0,NW,6.9,-,N/A,,Clear,310,2012-10-18 17:52:00
12:12 PM,56.8,9.0,15,30.11,10.0,NNW,16.1,23.0,N/A,,Clear,340,2012-10-18 18:12:00
12:32 PM,58.1,8.8,14,30.10,10.0,NNW,18.4,25.3,N/A,,Clear,330,2012-10-18 18:32:00
12:52 PM,58.6,8.8,14,30.09,10.0,NNW,17.3,26.5,N/A,,Clear,340,2012-10-18 18:52:00
1:12 PM,59.4,9.5,14,30.08,10.0,NNW,17.3,27.6,N/A,,Clear,340,2012-10-18 19:12:00
1:32 PM,59.4,9.3,14,30.08,10.0,NNW,17.3,27.6,N/A,,Clear,330,2012-10-18 19:32:00
1:52 PM,59.9,9.1,13,30.08,10.0,North,19.6,31.1,N/A,,Clear,350,2012-10-18 19:52:00
2:12 PM,60.3,9.5,13,30.08,10.0,North,18.4,27.6,N/A,,Clear,350,2012-10-18 20:12:00
2:32 PM,60.8,8.8,13,30.09,10.0,North,18.4,26.5,N/A,,Clear,10,2012-10-18 20:32:00
2:52 PM,60.6,10.9,14,30.09,10.0,NNE,15.0,26.5,N/A,,Clear,20,2012-10-18 20:52:00
3:12 PM,59.9,11.3,15,30.10,10.0,NNE,12.7,17.3,N/A,,Clear,30,2012-10-18 21:12:00
3:32 PM,59.9,12.4,15,30.10,10.0,SE,13.8,-,N/A,,Clear,130,2012-10-18 21:32:00
3:52 PM,57.2,13.1,18,30.10,10.0,SSE,11.5,21.9,N/A,,Clear,160,2012-10-18 21:52:00
4:12 PM,58.3,11.8,16,30.10,10.0,SE,4.6,-,N/A,,Clear,140,2012-10-18 22:12:00
4:32 PM,58.3,11.5,16,30.10,10.0,Calm,Calm,-,N/A,,Clear,0,2012-10-18 22:32:00
4:52 PM,58.6,12.2,16,30.11,10.0,SSW,6.9,-,N/A,,Clear,200,2012-10-18 22:52:00
5:12 PM,57.4,12.7,17,30.12,10.0,South,5.8,-,N/A,,Clear,180,2012-10-18 23:12:00
5:32 PM,54.3,13.6,20,30.12,10.0,SE,4.6,-,N/A,,Clear,140,2012-10-18 23:32:00
5:52 PM,51.6,13.8,22,30.13,10.0,SSW,9.2,-,N/A,,Clear,200,2012-10-18 23:52:00
6:12 PM,48.0,13.5,25,30.13,10.0,SSW,11.5,-,N/A,,Clear,200,2012-10-19 00:12:00
6:32 PM,45.5,13.1,27,30.14,10.0,SSW,4.6,-,N/A,,Clear,210,2012-10-19 00:32:00
6:52 PM,43.5,13.6,30,30.14,10.0,WSW,3.5,-,N/A,,Clear,240,2012-10-19 00:52:00
7:12 PM,42.3,13.5,31,30.15,10.0,Calm,Calm,-,N/A,,Clear,0,2012-10-19 01:12:00
7:32 PM,43.0,13.1,30,30.16,10.0,West,6.9,-,N/A,,Clear,270,2012-10-19 01:32:00
7:52 PM,38.3,13.3,36,30.16,10.0,SW,3.5,-,N/A,,Clear,220,2012-10-19 01:52:00
8:12 PM,39.0,13.1,35,30.17,10.0,WSW,4.6,-,N/A,,Clear,250,2012-10-19 02:12:00
8:32 PM,38.3,13.6,37,30.18,10.0,West,10.4,-,N/A,,Clear,280,2012-10-19 02:32:00
8:52 PM,38.1,12.9,36,30.18,10.0,WSW,4.6,-,N/A,,Clear,240,2012-10-19 02:52:00
9:12 PM,36.1,13.5,39,30.18,10.0,Calm,Calm,-,N/A,,Clear,0,2012-10-19 03:12:00
9:32 PM,38.1,13.1,36,30.19,10.0,West,6.9,-,N/A,,Clear,280,2012-10-19 03:32:00
9:52 PM,32.0,14.7,49,30.18,10.0,WNW,6.9,-,N/A,,Clear,290,2012-10-19 03:52:00
10:12 PM,33.4,14.9,47,30.18,10.0,West,5.8,-,N/A,,Clear,280,2012-10-19 04:12:00
10:32 PM,35.6,14.2,42,30.18,10.0,WNW,4.6,-,N/A,,Clear,290,2012-10-19 04:32:00
10:52 PM,35.2,14.4,42,30.18,10.0,West,8.1,-,N/A,,Clear,270,2012-10-19 04:52:00
11:12 PM,37.4,14.0,38,30.18,10.0,West,8.1,-,N/A,,Clear,270,2012-10-19 05:12:00
11:32 PM,37.8,14.0,38,30.17,10.0,West,8.1,-,N/A,,Clear,270,2012-10-19 05:32:00
11:52 PM,37.0,14.2,39,30.16,10.0,West,8.1,-,N/A,,Clear,280,2012-10-19 05:52:00